User: anonymous   Login
Location: Unspecified
(10.5000°N, 0.0000°E)
Time: 03:19:21
(UTC+00:00)
Language:

Envisat - Orbit

View from above orbital plane
View from above orbital plane
View from above satellite
View from above satellite

Ground track
Ground track

The orbit data is extracted from the following two-line orbital elements,

1 27386U 02009A   20220.64569715  .00000001  00000-0  13685-4 0  9994
2 27386  98.1365 225.0032 0001418  88.7810  21.1006 14.37988159965971
Epoch (UTC): 07 August 2020 15:29:48
Eccentricity: 0.0001418
inclination: 98.1365°
perigee height: 764 km
apogee height: 766 km
right ascension of ascending node: 225.0032°
argument of perigee: 88.7810°
revolutions per day: 14.37988159
mean anomaly at epoch: 21.1006°
orbit number at epoch: 96597

The dashed part of the orbit path shows where the satellite is in the earth's shadow,  

DLR